Temp
39 40 39 39 42 42 43 42 42 50 52 53 54 54 55 55 55 56 56 56 56 56 57 57 58 58 58
37 39 39 39 38 38 44 46 42 47 51 52 52 53 53 54 54 54 54 54 54 54 55 55 56 56 57
39 38 38 38 40 38 38 38 43 47 48 49 50 51 51 52 53 53 53 53 53 53 53 53 54 54 55
32 33 34 36 35 34 36 36 38 43 44 45 47 47 48 49 49 49 49 51 52 53 52 52 52 52 53
32 31 31 32 32 35 34 35 36 36 35 35 38 39 40 45 45 46 48 49 51 51 52 52 52 51 52
33 31 32 32 33 33 33 32 30 36 33 37 36 37 38 39 45 47 48 49 49 50 51 51 51 51 51
32 31 32 33 33 33 32 31 32 36 34 33 34 35 38 41 44 46 47 48 48 49 49 50 50 50 50
34 34 34 35 34 35 34 33 33 35 33 29 34 33 37 38 43 44 46 47 47 48 49 49 49 49 49
43 43 43 43 42 36 32 30 29 32 32 31 32 30 31 36 37 43 44 45 45 47 49 49 49 48 46
33 34 36 34 40 34 31 30 30 30 31 28 29 31 30 31 31 36 35 41 44 45 47 48 48 42 39
30 30 30 29 30 30 31 30 30 30 37 35 32 33 31 31 31 34 35 34 36 39 44 48 46 44 37
27 27 27 28 29 29 30 30 31 32 35 34 30 31 30 30 29 34 33 35 34 34 37 45 45 45 44
26 27 25 28 29 27 28 29 28 33 36 33 32 32 31 29 29 31 33 34 34 34 37 40 39 39 38
27 28 28 25 25 26 27 29 27 28 31 31 30 30 29 31 31 30 31 31 30 34 35 35 37 38 38
26 27 29 28 27 25 29 22 24 26 25 26 28 31 32 30 28 30 31 32 33 29 32 32 33 33 36
27 27 27 26 25 26 22 23 22 25 26 27 23 24 20 27 34 29 31 31 32 32 31 30 26 31 33
25 25 26 26 25 21 21 26 24 25 22 22 26 21 23 20 25 36 30 28 30 31 31 30 29 30 31
MSLP
1022.50 1022.03 1021.84 1021.59 1021.32 1021.11 1020.79 1020.48 1020.07 1019.60 1019.19 1018.74 1018.28 1017.89 1017.53 1017.16 1016.76 1016.37 1016.07 1015.82 1015.55 1015.29 1015.06 1014.80 1014.52 1014.35 1014.21
1022.88 1022.26 1021.78 1021.31 1021.11 1020.84 1020.36 1020.05 1019.86 1019.48 1018.95 1018.50 1018.01 1017.52 1017.12 1016.76 1016.36 1015.99 1015.69 1015.47 1015.25 1015.05 1014.83 1014.61 1014.41 1014.14 1013.94
1022.97 1022.51 1022.07 1021.55 1021.05 1020.68 1020.33 1019.96 1019.68 1019.28 1018.87 1018.35 1017.80 1017.39 1017.00 1016.52 1016.02 1015.64 1015.20 1014.96 1014.82 1014.62 1014.40 1014.28 1014.18 1014.01 1013.77
1022.82 1022.54 1022.33 1021.74 1021.39 1021.13 1020.57 1020.09 1019.51 1018.95 1018.62 1018.26 1017.83 1017.50 1017.11 1016.59 1016.00 1015.47 1014.99 1014.55 1014.25 1014.06 1013.88 1013.74 1013.75 1013.74 1013.62
1022.63 1022.37 1022.13 1021.72 1021.45 1020.92 1020.54 1019.97 1019.40 1018.90 1018.34 1018.03 1017.59 1017.26 1016.84 1016.14 1015.70 1015.18 1014.69 1014.28 1013.77 1013.42 1013.19 1013.08 1013.03 1013.04 1013.17
1022.38 1022.21 1021.82 1021.42 1021.03 1020.74 1020.31 1019.88 1019.22 1018.59 1018.38 1017.71 1017.43 1016.87 1016.44 1015.97 1015.35 1014.70 1014.16 1013.72 1013.32 1012.90 1012.50 1012.34 1012.34 1012.31 1012.44
1022.06 1021.89 1021.42 1021.03 1020.71 1020.34 1019.95 1019.59 1019.06 1018.40 1018.26 1017.41 1017.17 1016.40 1015.83 1015.23 1014.81 1014.26 1013.80 1013.21 1012.61 1012.15 1011.95 1011.69 1011.64 1011.71 1011.76
1021.40 1021.15 1020.85 1020.51 1020.31 1019.89 1019.52 1019.13 1018.44 1017.92 1017.85 1017.24 1016.52 1016.01 1015.38 1014.76 1014.27 1013.70 1013.06 1012.63 1012.07 1011.61 1011.17 1011.08 1010.96 1011.07 1011.32
1020.40 1020.15 1019.87 1019.58 1019.39 1019.33 1019.10 1018.90 1018.05 1017.46 1017.18 1017.14 1016.23 1015.86 1015.14 1014.43 1013.71 1013.20 1012.73 1012.27 1011.69 1010.97 1010.44 1010.46 1010.43 1010.48 1010.71
1020.40 1020.01 1019.68 1019.51 1019.13 1019.18 1018.97 1018.72 1018.15 1017.15 1016.63 1016.59 1016.05 1015.95 1014.90 1013.88 1013.55 1013.04 1012.50 1011.88 1011.17 1010.50 1009.81 1009.60 1009.95 1010.13 1010.53
1020.01 1019.79 1019.56 1019.30 1019.02 1018.67 1018.44 1018.35 1017.80 1016.94 1016.13 1016.08 1015.63 1015.27 1014.88 1013.78 1013.05 1012.74 1012.40 1011.57 1011.03 1010.20 1009.44 1008.79 1009.18 1009.52 1010.24
1019.98 1019.67 1019.41 1019.08 1018.63 1018.25 1017.89 1017.62 1017.30 1016.87 1016.19 1016.10 1015.57 1015.08 1014.27 1013.52 1012.79 1012.08 1011.84 1011.12 1010.64 1009.82 1009.21 1008.41 1008.48 1009.02 1009.47
1019.78 1019.43 1019.10 1018.60 1018.17 1017.85 1017.45 1017.08 1016.59 1015.98 1015.55 1015.24 1015.06 1014.54 1014.08 1013.33 1012.71 1011.93 1011.26 1010.21 1009.83 1009.31 1008.93 1008.47 1008.55 1008.68 1009.27
1019.43 1018.93 1018.60 1018.27 1017.98 1017.59 1017.36 1016.91 1016.46 1015.79 1015.11 1014.58 1014.36 1014.21 1013.50 1013.03 1012.43 1011.61 1010.98 1010.17 1009.37 1009.07 1008.74 1008.42 1008.41 1008.73 1009.11
1019.00 1018.66 1018.23 1017.89 1017.54 1017.17 1016.79 1016.56 1016.23 1015.37 1014.85 1014.29 1013.80 1013.46 1013.11 1012.72 1012.07 1011.31 1010.47 1009.49 1008.68 1008.66 1008.73 1008.53 1008.58 1008.90 1009.19
1018.61 1018.34 1018.01 1017.64 1017.25 1016.85 1016.61 1016.43 1015.94 1015.26 1014.80 1014.29 1013.84 1013.28 1012.43 1011.71 1011.25 1010.76 1010.29 1009.61 1008.85 1008.45 1008.32 1008.66 1009.27 1009.53 1009.59
1018.31 1017.93 1017.56 1017.20 1016.82 1016.49 1016.26 1015.89 1015.39 1014.97 1014.51 1014.12 1013.67 1013.26 1012.56 1011.70 1010.60 1010.19 1010.21 1009.76 1009.47 1008.88 1008.83 1009.17 1009.62 1009.61 1009.55
Wind_Speed
3 2 3 4 5 4 5 5 5 13 17 19 20 19 18 18 18 18 17 17 16 17 16 16 15 14 13
3 4 4 5 4 5 5 4 4 10 17 19 21 22 21 18 17 18 18 17 17 17 17 16 16 15 14
7 3 4 4 7 4 5 5 3 11 15 19 21 21 21 22 21 19 18 16 16 17 17 16 15 14 14
3 3 3 5 3 4 5 3 7 6 11 12 15 17 20 22 20 18 17 17 17 19 17 15 15 15 15
4 2 3 3 4 3 5 5 5 4 4 3 5 6 7 14 15 18 19 20 19 20 20 19 17 16 16
5 5 7 5 3 4 5 5 6 4 2 9 4 7 6 6 17 22 21 22 22 21 20 19 18 16 16
6 5 6 4 5 7 6 5 7 7 4 10 3 8 6 7 18 22 23 23 22 20 20 19 18 17 16
6 7 7 7 6 6 7 7 6 6 3 7 5 7 8 7 19 22 23 23 23 22 20 19 18 15 14
15 16 17 18 15 7 7 6 9 9 3 3 8 6 4 9 8 16 17 23 24 23 21 18 18 15 11
7 9 10 9 16 6 6 9 9 9 3 2 4 4 6 4 4 8 6 17 23 22 22 17 19 4 4
5 5 5 5 5 5 5 5 7 8 10 8 6 7 5 8 5 7 8 8 8 12 19 17 19 11 4
4 5 5 5 6 5 6 6 6 10 12 10 6 8 9 8 9 8 8 10 8 9 7 10 16 17 12
5 6 4 6 6 5 5 7 7 8 8 8 7 9 8 7 9 9 13 10 6 6 5 7 5 3 5
6 5 5 3 4 3 4 7 7 7 6 8 8 8 8 7 7 11 10 10 3 5 5 1 3 6 6
4 6 7 6 6 3 6 4 6 7 7 5 6 7 8 10 9 10 10 10 6 3 3 3 1 2 5
5 6 7 8 7 6 3 4 6 8 8 7 5 5 3 6 15 9 7 5 3 1 2 3 2 2 4
6 6 7 8 9 5 5 8 8 8 6 5 5 2 8 8 4 8 5 3 4 4 3 2 0 2 1
Wind_Direction
285 276 268 269 290 287 293 294 295 316 322 319 316 312 305 298 295 290 288 289 291 290 291 295 297 296 297
279 308 309 316 274 288 291 279 289 306 318 313 307 304 304 302 291 286 280 278 282 283 281 282 285 288 290
300 292 298 307 313 311 304 299 293 316 322 312 308 313 315 313 306 298 285 269 272 275 272 269 270 275 281
268 265 267 287 283 288 308 299 305 310 314 312 328 328 322 321 318 314 304 285 272 273 269 259 258 260 269
293 281 279 289 275 277 294 287 291 278 286 283 287 298 301 310 305 306 305 298 285 273 266 260 253 252 260
299 288 286 270 279 282 291 299 304 255 294 303 293 293 284 288 297 306 306 304 295 281 265 255 252 247 252
289 282 289 274 287 298 286 280 283 284 297 293 278 288 290 288 296 299 302 299 295 285 270 256 249 242 243
249 262 259 266 260 274 279 282 276 285 230 280 294 279 289 288 291 291 297 305 300 288 271 256 246 234 235
298 301 301 304 308 310 296 291 292 290 238 249 285 289 269 290 281 293 310 315 308 299 274 270 246 226 229
299 299 296 291 304 288 282 288 289 292 285 228 291 304 292 239 282 299 293 303 305 300 291 243 258 211 201
267 274 283 281 275 262 258 257 281 274 290 300 290 282 253 285 263 294 295 294 297 295 292 251 231 209 188
296 291 287 286 282 272 270 267 256 267 290 291 280 289 289 292 292 301 295 285 272 273 275 236 225 218 188
292 287 257 271 287 283 282 266 257 265 271 253 246 271 274 275 284 288 298 297 250 257 267 229 184 154 150
284 279 281 284 279 265 287 305 304 297 264 256 252 257 272 269 284 293 289 284 254 252 248 200 154 170 158
282 292 298 293 283 259 281 270 268 295 298 289 281 253 264 273 284 288 293 299 244 204 215 179 99 123 131
281 286 295 296 294 289 273 291 292 296 302 298 297 306 315 265 235 272 293 303 320 165 233 92 60 164 160
283 283 285 287 293 284 278 296 290 290 277 277 283 286 304 288 275 256 279 314 336 353 22 65 161 290 190